Time,TemperatureF,DewpointF,PressureIn,WindDirection,WindDirectionDegrees,WindSpeedMPH,WindSpeedGustMPH,Humidity,HourlyPrecipIn,Conditions,Clouds,dailyrainin,SolarRadiationWatts/m^2,SoftwareType,DateUTC
2013-08-22 00:04:00,63.0,63.0,-100.00,North,0,4.0,10.0,100,0.00,,,0.01,0.000000,,2013-08-22 04:04:00,
2013-08-22 00:44:00,64.0,63.0,-100.00,North,0,3.0,10.0,98,0.00,,,0.01,0.000000,,2013-08-22 04:44:00,
2013-08-22 00:54:00,64.0,63.0,-100.00,North,0,3.0,10.0,98,0.00,,,0.01,0.000000,,2013-08-22 04:54:00,
2013-08-22 01:03:00,64.0,63.0,-100.00,North,0,3.0,10.0,98,0.00,,,0.01,0.000000,,2013-08-22 05:03:00,
2013-08-22 01:43:00,65.0,63.0,-100.00,North,0,6.0,11.0,92,0.01,,,0.02,0.000000,,2013-08-22 05:43:00,
2013-08-22 01:53:00,65.0,63.0,-100.00,North,0,6.0,11.0,92,0.01,,,0.02,0.000000,,2013-08-22 05:53:00,
2013-08-22 02:02:00,65.0,63.0,-100.00,North,0,6.0,11.0,92,0.01,,,0.02,0.000000,,2013-08-22 06:02:00,
2013-08-22 02:42:00,64.0,64.0,-100.00,North,0,5.0,12.0,100,0.10,,,0.12,0.000000,,2013-08-22 06:42:00,
2013-08-22 02:52:00,64.0,64.0,-100.00,North,0,5.0,12.0,100,0.10,,,0.12,0.000000,,2013-08-22 06:52:00,
2013-08-22 03:02:00,64.0,64.0,-100.00,North,0,5.0,12.0,100,0.10,,,0.12,0.000000,,2013-08-22 07:02:00,
2013-08-22 03:42:00,62.0,62.0,-100.00,North,0,4.0,12.0,100,0.03,,,0.15,0.000000,,2013-08-22 07:42:00,
2013-08-22 03:53:00,62.0,62.0,-100.00,North,0,4.0,12.0,100,0.03,,,0.15,0.000000,,2013-08-22 07:53:00,
2013-08-22 04:03:00,62.0,62.0,-100.00,North,0,4.0,12.0,100,0.03,,,0.15,0.000000,,2013-08-22 08:03:00,
2013-08-22 04:43:00,60.0,60.0,-100.00,North,0,3.0,10.0,100,0.00,,,0.15,0.000000,,2013-08-22 08:43:00,
2013-08-22 04:53:00,60.0,60.0,-100.00,North,0,3.0,10.0,100,0.00,,,0.15,0.000000,,2013-08-22 08:53:00,
2013-08-22 05:01:00,60.0,60.0,-100.00,North,0,3.0,10.0,100,0.00,,,0.15,0.000000,,2013-08-22 09:01:00,
2013-08-22 05:43:00,61.0,61.0,-100.00,North,0,5.0,10.0,100,0.00,,,0.15,0.000000,,2013-08-22 09:43:00,
2013-08-22 05:54:00,61.0,61.0,-100.00,North,0,5.0,10.0,100,0.00,,,0.15,0.000000,,2013-08-22 09:54:00,
2013-08-22 06:04:00,61.0,61.0,-100.00,North,0,5.0,10.0,100,0.00,,,0.15,0.000000,,2013-08-22 10:04:00,
2013-08-22 06:08:00,61.0,61.0,-100.00,North,0,7.0,15.0,100,0.00,,,0.15,0.000000,,2013-08-22 10:08:00,
2013-08-22 06:42:00,61.0,61.0,-100.00,North,0,7.0,15.0,100,0.00,,,0.15,0.000000,,2013-08-22 10:42:00,
2013-08-22 08:42:00,63.0,63.0,-100.00,North,0,6.0,15.0,100,0.00,,,0.15,59.000000,,2013-08-22 12:42:00,
2013-08-22 08:52:00,63.0,63.0,-100.00,North,0,6.0,15.0,100,0.00,,,0.15,59.000000,,2013-08-22 12:52:00,
2013-08-22 09:02:00,63.0,63.0,-100.00,North,0,6.0,15.0,100,0.00,,,0.15,59.000000,,2013-08-22 13:02:00,
2013-08-22 09:42:00,63.0,63.0,-100.00,North,0,6.0,14.0,100,0.00,,,0.15,134.000000,,2013-08-22 13:42:00,
2013-08-22 09:52:00,63.0,63.0,-100.00,North,0,6.0,14.0,100,0.00,,,0.15,134.000000,,2013-08-22 13:52:00,
2013-08-22 10:02:00,63.0,63.0,-100.00,North,0,6.0,14.0,100,0.00,,,0.15,134.000000,,2013-08-22 14:02:00,
2013-08-22 10:42:00,64.0,64.0,-100.00,North,0,6.0,16.0,100,0.00,,,0.15,188.000000,,2013-08-22 14:42:00,
2013-08-22 10:52:00,64.0,64.0,-100.00,North,0,6.0,16.0,100,0.00,,,0.15,188.000000,,2013-08-22 14:52:00,
2013-08-22 11:02:00,64.0,64.0,-100.00,North,0,6.0,16.0,100,0.00,,,0.15,188.000000,,2013-08-22 15:02:00,
2013-08-22 11:44:00,66.0,66.0,-100.00,North,0,6.0,12.0,100,0.00,,,0.15,184.000000,,2013-08-22 15:44:00,
2013-08-22 11:55:00,66.0,66.0,-100.00,North,0,6.0,12.0,100,0.00,,,0.15,184.000000,,2013-08-22 15:55:00,
2013-08-22 12:05:00,66.0,66.0,-100.00,North,0,6.0,12.0,100,0.00,,,0.15,184.000000,,2013-08-22 16:05:00,
2013-08-22 12:54:00,73.0,68.0,-100.00,North,0,6.0,11.0,84,0.00,,,0.15,635.000000,,2013-08-22 16:54:00,
2013-08-22 13:02:00,73.0,68.0,-100.00,North,0,6.0,11.0,84,0.00,,,0.15,635.000000,,2013-08-22 17:02:00,
2013-08-22 13:43:00,74.0,67.0,-100.00,North,0,6.0,12.0,80,0.00,,,0.15,786.000000,,2013-08-22 17:43:00,
2013-08-22 13:53:00,74.0,67.0,-100.00,North,0,6.0,12.0,80,0.00,,,0.15,786.000000,,2013-08-22 17:53:00,
2013-08-22 14:02:00,74.0,67.0,-100.00,North,0,6.0,12.0,80,0.00,,,0.15,786.000000,,2013-08-22 18:02:00,
2013-08-22 14:43:00,75.0,68.0,-100.00,North,0,6.0,13.0,79,0.00,,,0.15,545.000000,,2013-08-22 18:43:00,
2013-08-22 14:52:00,75.0,68.0,-100.00,North,0,6.0,13.0,79,0.00,,,0.15,545.000000,,2013-08-22 18:52:00,
2013-08-22 15:02:00,75.0,68.0,-100.00,North,0,6.0,13.0,79,0.00,,,0.15,545.000000,,2013-08-22 19:02:00,
2013-08-22 15:42:00,76.0,67.0,-100.00,North,0,6.0,15.0,73,0.00,,,0.15,644.000000,,2013-08-22 19:42:00,
2013-08-22 15:53:00,76.0,67.0,-100.00,North,0,6.0,15.0,73,0.00,,,0.15,644.000000,,2013-08-22 19:53:00,
2013-08-22 16:02:00,76.0,67.0,-100.00,North,0,6.0,15.0,73,0.00,,,0.15,644.000000,,2013-08-22 20:02:00,
2013-08-22 16:42:00,68.0,62.0,-100.00,North,0,9.0,21.0,80,0.05,,,-99.99,298.000000,,2013-08-22 20:42:00,
2013-08-22 16:52:00,68.0,62.0,-100.00,North,0,9.0,21.0,80,0.05,,,-99.99,298.000000,,2013-08-22 20:52:00,
2013-08-22 17:03:00,68.0,62.0,-100.00,North,0,9.0,21.0,80,0.05,,,-99.99,298.000000,,2013-08-22 21:03:00,
2013-08-22 17:44:00,64.0,64.0,-100.00,North,0,2.0,21.0,100,0.39,,,0.59,40.000000,,2013-08-22 21:44:00,
2013-08-22 17:54:00,64.0,64.0,-100.00,North,0,2.0,21.0,100,0.39,,,0.59,40.000000,,2013-08-22 21:54:00,
2013-08-22 18:05:00,64.0,64.0,-100.00,North,0,2.0,21.0,100,0.39,,,0.59,40.000000,,2013-08-22 22:05:00,
2013-08-22 18:42:00,68.0,68.0,-100.00,North,0,5.0,9.0,100,0.00,,,0.59,189.000000,,2013-08-22 22:42:00,
2013-08-22 18:53:00,68.0,68.0,-100.00,North,0,5.0,9.0,100,0.00,,,0.59,189.000000,,2013-08-22 22:53:00,
2013-08-22 19:03:00,68.0,68.0,-100.00,North,0,5.0,9.0,100,0.00,,,0.59,189.000000,,2013-08-22 23:03:00,
2013-08-22 19:42:00,68.0,67.0,-100.00,North,0,4.0,10.0,95,0.00,,,0.59,180.000000,,2013-08-22 23:42:00,
2013-08-22 19:53:00,68.0,67.0,-100.00,North,0,4.0,10.0,95,0.00,,,0.59,180.000000,,2013-08-22 23:53:00,
2013-08-22 20:02:00,68.0,67.0,-100.00,North,0,4.0,10.0,95,0.00,,,0.59,180.000000,,2013-08-23 00:02:00,
2013-08-22 20:42:00,65.0,65.0,-100.00,North,0,5.0,11.0,100,0.00,,,0.59,22.000000,,2013-08-23 00:42:00,
2013-08-22 20:52:00,65.0,65.0,-100.00,North,0,5.0,11.0,100,0.00,,,0.59,22.000000,,2013-08-23 00:52:00,
2013-08-22 21:02:00,65.0,65.0,-100.00,North,0,5.0,11.0,100,0.00,,,0.59,22.000000,,2013-08-23 01:02:00,
2013-08-22 21:42:00,66.0,66.0,-100.00,North,0,6.0,12.0,100,0.00,,,0.58,1.000000,,2013-08-23 01:42:00,
2013-08-22 21:52:00,66.0,66.0,-100.00,North,0,6.0,12.0,100,0.00,,,0.58,1.000000,,2013-08-23 01:52:00,
2013-08-22 22:02:00,66.0,66.0,-100.00,North,0,6.0,12.0,100,0.00,,,0.58,1.000000,,2013-08-23 02:02:00,
2013-08-22 22:43:00,66.0,66.0,-100.00,North,0,5.0,10.0,100,0.00,,,0.58,0.000000,,2013-08-23 02:43:00,
2013-08-22 22:52:00,66.0,66.0,-100.00,North,0,5.0,10.0,100,0.00,,,0.58,0.000000,,2013-08-23 02:52:00,
2013-08-22 23:02:00,66.0,66.0,-100.00,North,0,5.0,10.0,100,0.00,,,0.58,0.000000,,2013-08-23 03:02:00,
2013-08-22 23:44:00,67.0,67.0,-100.00,North,0,5.0,12.0,100,0.00,,,0.58,0.000000,,2013-08-23 03:44:00,
2013-08-22 23:55:00,67.0,67.0,-100.00,North,0,5.0,12.0,100,0.00,,,0.58,0.000000,,2013-08-23 03:55:00,